Home > Weather > Ljubljana > Past weeks

Flag for Slovenia Weather for the Past 2 Weeks in Ljubljana, Slovenia

Now
51 °F

Scattered clouds.


Feels Like: 49 °F
Forecast: 34 / 47 °F
Wind: 5 mph from Southwest

Location: Ljubljana / Bezigrad

Current Time: Feb 6, 2016 at 2:40:35 PM

Latest Report: Feb 6, 2016 at 2:00 PM


Visibility: 31 mi

Pressure: 30.30 "Hg

Humidity: 53%

Dew point: 34 °F

Location of LjubljanaLocation

Historic Weather in Ljubljana — Graph

°F

Ljubljana Temperature Yesterday

Maximum temperature yesterday: 50 °F (at 3:00 PM)
Minimum temperature yesterday: 29 °F (at 7:00 AM)
Average temperature yesterday: 39 °F

High & Low Weather Summary for the Past Weeks

 TemperatureHumidityPressure
High57 °F (Feb 1, 2:00 PM)97% (Feb 3, 11:00 AM)30.68 "Hg (Feb 3, 11:00 AM)
Low19 °F (Jan 24, 8:00 AM)41% (Feb 4, 3:00 PM)29.89 "Hg (Feb 3, 4:00 PM)
Average40 °F78%30.34 "Hg
* Reported Jan 22 1:00 PM — Feb 6 1:00 PM, Ljubljana, Weather by CustomWeather, © 2016

Note: Actual official high and low records may vary slightly from our data, if they occured in-between our weather recording intervals... More about our weather records

Advertising

Ljubljana Weather History for the Previous 24 Hours

 ConditionsComfort  
Time TempWeatherWind HumidityBarometerVisibility
1:00 PM
Sat, Feb 6
51 °FPassing clouds.6 mph55%30.33 "Hg31 mi
12:00 PM50 °FPassing clouds.6 mph56%30.35 "Hg31 mi
11:00 AM38 °FPassing clouds.1 mph80%30.41 "Hg25 mi
10:00 AM33 °FPartly sunny.1 mph87%30.44 "Hg9 mi
9:00 AM31 °FScattered clouds.1 mph90%30.45 "Hg9 mi
8:00 AM29 °FPassing clouds.1 mph95%30.46 "Hg9 mi
7:00 AM29 °FPassing clouds.1 mph92%30.46 "Hg25 mi
6:00 AM30 °FClear.No wind92%30.45 "Hg19 mi
5:00 AM30 °FChilly.1 mph91%30.45 "HgN/A
4:00 AM30 °FChilly.1 mph91%30.46 "HgN/A
9:00 PM
Fri, Feb 5
37 °FPassing clouds.1 mph74%30.44 "Hg25 mi
8:00 PM39 °FPassing clouds.1 mph69%30.42 "Hg25 mi
7:00 PM41 °FPassing clouds.No wind63%30.40 "Hg25 mi
6:00 PM43 °FPassing clouds.1 mph56%30.37 "Hg31 mi
5:00 PM47 °FScattered clouds.2 mph49%30.36 "Hg31 mi
4:00 PM50 °FPassing clouds.1 mph44%30.34 "Hg31 mi
3:00 PM50 °FPassing clouds.1 mph45%30.34 "Hg31 mi
2:00 PM49 °FPassing clouds.1 mph45%30.34 "Hg31 mi
Weather by CustomWeather, © 2016

See weather overviewHow to use our weather pages